Weather History for CWGD - May, 2013

Change the Weather History Date:

Monday, May 20, 2013

  Actual Average Record
Temperature  
Mean Temperature 73 °F -  
Max Temperature 85 °F - - ()
Min Temperature 61 °F - - ()
Cooling Degree Days 8    
Growing Degree Days 23 (Base 50)    
Moisture  
Dew Point 62 °F    
Average Humidity 70    
Maximum Humidity 94    
Minimum Humidity 47    
Precipitation  
Precipitation 0.75 in - - ()
Sea Level Pressure  
Sea Level Pressure 29.89 in    
Wind  
Wind Speed 8 mph ()    
Max Wind Speed 17 mph    
Max Gust Speed 25 mph    
T = Trace of Precipitation, MM = Missing Value Source: Averaged Metar Reports

Daily Weather History Graph

Daily Weather History Graph

Search for Another Location

Airport or City:

Trip Planner

Search our weather history database for the weather conditions in past years. The results will help you decide how hot, cold, wet, or windy it might be!

Date:

Astronomy

May. 20, 2013 Rise Set
Actual Time 5:56 AM EDT 8:51 PM EDT
Civil Twilight 5:22 AM EDT 9:25 PM EDT
Nautical Twilight 4:39 AM EDT 10:08 PM EDT
Astronomical Twilight 3:49 AM EDT 10:59 PM EDT
Moon 3:48 PM EDT (5/20) 3:00 AM EDT (5/20)
Length of Visible Light 16h 02m
Length of Day
14h 54m
Waxing Gibbous, 75% of the Moon is Illuminated
May 20
Waxing Gibbous
May 25
Full
May 31
Last Quarter
Jun 8
New
Jun 16
First Quarter

Hourly Weather History & Observations

Time (EDT) Temp. Heat Index Dew Point Humidity Pressure Visibility Wind Dir Wind Speed Gust Speed Precip Events Conditions
12:00 AM 69.3 °F - 59.5 °F 71% 29.94 in - SE 5.8 mph - N/A   Unknown
1:00 AM 68.4 °F - 59.4 °F 73% 29.94 in - SE 8.1 mph - N/A   Unknown
2:00 AM 67 °F - 59 °F 69% 29.93 in - SE 8.1 mph - -  
2:00 AM 67.1 °F - 59.2 °F 76% 29.93 in - SE 8.1 mph - N/A   Unknown
3:00 AM 66.6 °F - 59.5 °F 78% 29.93 in - SSE 4.6 mph - N/A   Unknown
4:00 AM 66.6 °F - 59.9 °F 79% 29.93 in - SSE 9.2 mph - N/A   Unknown
5:00 AM 66.2 °F - 60.4 °F 82% 29.94 in - SSE 6.9 mph - N/A   Unknown
6:00 AM 66.0 °F - 60.6 °F 83% 29.95 in - SE 6.9 mph - N/A   Unknown
7:00 AM 65.7 °F - 60.6 °F 84% 29.95 in - SE 9.2 mph - N/A   Unknown
8:00 AM 68 °F - 62 °F 74% 29.94 in - SE 9.2 mph - -  
8:00 AM 68.0 °F - 61.7 °F 80% 29.94 in - SE 9.2 mph - N/A   Unknown
9:00 AM 71.8 °F - 63.1 °F 74% 29.93 in - SE 8.1 mph - N/A   Unknown
10:00 AM 75.9 °F - 64.4 °F 67% 29.91 in - South 8.1 mph - N/A   Unknown
12:00 PM 77.7 °F - 65.1 °F 65% 29.93 in - South 10.4 mph - N/A   Unknown
1:00 PM 79.5 °F - 65.1 °F 61% 29.90 in - SSW 12.7 mph - N/A   Unknown
2:00 PM 83 °F - 66 °F 47% 29.86 in - South 11.5 mph - -  
2:00 PM 82.9 °F 85.0 °F 65.8 °F 56% 29.86 in - South 11.5 mph - N/A   Unknown
3:00 PM 82.6 °F 83.9 °F 64.0 °F 53% 29.85 in - SSW 16.1 mph - N/A   Unknown
4:00 PM 84.6 °F 85.6 °F 63.7 °F 49% 29.81 in - SSW 16.1 mph 23.0 mph N/A   Unknown
5:00 PM 84.4 °F 85.2 °F 62.6 °F 48% 29.79 in - South 16.1 mph 23.0 mph N/A   Unknown
6:00 PM 83.5 °F 84.7 °F 63.7 °F 51% 29.78 in - SSW 17.3 mph 25.3 mph N/A   Unknown
7:00 PM 81.5 °F 83.1 °F 64.2 °F 56% 29.79 in - South 12.7 mph - N/A   Unknown
8:00 PM 64 °F - 58 °F 75% 29.88 in - North 13.8 mph - -  
8:00 PM 64.2 °F - 57.9 °F 80% 29.88 in - North 13.8 mph 19.6 mph N/A   Unknown
9:00 PM 61.5 °F - 59.7 °F 94% 29.89 in - SSE 6.9 mph - 0.74 in   Unknown
10:00 PM 63.3 °F - 59.9 °F 89% 29.87 in - SE 5.8 mph - N/A   Unknown
11:00 PM 63.3 °F - 59.9 °F 89% 29.84 in - SE 11.5 mph - N/A   Unknown